Location: Bennemühlen
(52.5740°N, 9.7135°E)
Time: 23:35:04
(UTC+00:00)

IKONOS-2 - Pass Details

Date: 19 May 2025
Orbit: 577 x 585 km, 98.2° (Epoch: 22 June)

Event Time Altitude Azimuth Distance (km) Brightness Sun altitude
Rises 20:21:17 0° 16° (NNE) 2,808 8.4 -8.0°
Reaches altitude 10° 20:23:28 10° 20° (NNE) 1,904 7.5 -8.2°
Maximum altitude 20:27:34 66° 103° (ESE) 636 4.4 -8.6°
Drops below altitude 10° 20:31:39 10° 186° (S) 1,892 6.6 -9.0°
Enters shadow 20:33:21 - 189° (S) 2,600 7.4 -9.2°
